Regional Weather Roundup
Issued by NWS Cleveland, OH

Home | Current Version | Previous Version | Graphics & Text | Print | Product List | Glossary On
Versions: 1 2 3 4 5 6 7 8 9 10 11 12 13 14 15 16 17 18 19 20 21 22 23 24 25 26 27 28 29 30 31 32 33 34 35 36 37 38 39 40 41 42 43 44 45 46 47 48 49 50
000
ASUS41 KCLE 211700
RWRCLE
OHIO REGIONAL WEATHER ROUNDUP
NATIONAL WEATHER SERVICE WILMINGTON, OH
100 PM EDT SAT OCT 21 2017

NOTE: "FAIR" INDICATES FEW OR NO CLOUDS BELOW 12,000 FEET WITH NO
SIGNIFICANT WEATHER AND/OR OBSTRUCTIONS TO VISIBILITY.

OHZ001>008-015>018-024>027-034-035-043-044-211800-
   NORTHWEST OHIO

CITY           SKY/WX    TMP DP  RH WIND       PRES   REMARKS
DEFIANCE       FAIR      70  53  54 S6        30.21S
FINDLAY        FAIR      72  53  51 SE8       30.21F
TOLEDO EXPRESS FAIR      72  56  57 S8        30.21F
TOLEDO EXEC    FAIR      73  54  51 S9        30.22F
LIMA           FAIR      73  55  53 S7        30.22F
$$

OHZ009>014-019>023-028>033-038-089-211800-
   NORTHEAST OHIO

CITY           SKY/WX    TMP DP  RH WIND       PRES   REMARKS
CLE-HOPKINS    PTSUNNY   74  47  38 SW9       30.27F
CLE-LAKEFRONT  FAIR      72  46  39 S8        30.24F
CUY CO. ARPT   PTSUNNY   72  46  40 S12       30.27F
LORAIN-ELYRIA  FAIR      70  45  40 S8        30.26F
ASHTABULA      FAIR      66  45  46 S7        30.29F
AKRON-CANTON   PTSUNNY   68  48  48 S7        30.28F
WOOSTER        NOT AVBL
MANSFIELD      FAIR      71  50  47 S10       30.26F
YOUNGSTOWN     PTSUNNY   68  46  45 SE5       30.29F
$$

OHZ042-051>053-060>062-070>072-077>081-211800-
  SOUTHWEST OHIO

CITY           SKY/WX    TMP DP  RH WIND       PRES   REMARKS
CINC-COVINGTON PTSUNNY   69  51  52 S10       30.25S
CINC-LUNKEN    FAIR      71  55  56 S6        30.26S
HAMILTON       FAIR      71  51  49 SW7       30.25F
DAYTON         NOT AVBL
WRIGHT-PAT AFB NOT AVBL
DAYTON GENERAL FAIR      70  48  45 SW12      30.25S
WILMINGTON     FAIR      73  50  44 SW14      30.25F HAZE
$$

OHZ036-037-039>041-045>050-054>059-063>069-073>076-082>088-211800-
  CENTRAL AND SOUTHEAST OHIO

CITY           SKY/WX    TMP DP  RH WIND       PRES   REMARKS
COLUMBUS       PTSUNNY   71  52  50 S6        30.25F
OSU AIRPORT    FAIR      71  53  52 SE9       30.25F
BOLTON FIELD   SUNNY     72  54  53 SE6       30.26R
RICKENBACK AFB NOT AVBL
NEWARK         FAIR      71  49  45 S6        30.26F
MARION         FAIR      71  50  47 S9        30.25F
LANCASTER      FAIR      71  54  54 S6        30.26F
ZANESVILLE     FAIR      70  49  47 SW6       30.27F
NEW PHILLY     FAIR      66  49  54 E5        30.29F
$$




USA.gov is the U.S. government's official web portal to all federal, state and local government web resources and services.